User: anonymous   Login
Location: ??
(35.5052°N, 139.7262°E)
Time: 22:51:07
(UTC+00:00)
Language:

OAO 3 Rocket - Orbit

View from above orbital plane
View from above orbital plane
View from above satellite
View from above satellite

Ground track
Ground track

The orbit data is extracted from the following two-line orbital elements,

1 06155U 72065B   21269.09959824  .00000256  00000-0  43912-4 0  9999
2 06155  35.0044  58.5743 0036868  85.2890 275.2018 14.71716061601253
Epoch (UTC): 26 September 2021 02:23:25
Eccentricity: 0.0036868
inclination: 35.0044°
perigee height: 629 km
apogee height: 681 km
right ascension of ascending node: 58.5743°
argument of perigee: 85.2890°
revolutions per day: 14.71716061
mean anomaly at epoch: 275.2018°
orbit number at epoch: 60125

The dashed part of the orbit path shows where the satellite is in the earth's shadow,  

DLR